Volver al catálogo

DELTA 1 DEB

ActivoSSO
NORAD 12165·DEBRIS·🇺🇸 United States

Lanzado Mar 5, 1978 desde Vandenberg Space Force Base

Loading…

Próximos Pases (próximas 24 horas)

TLE

ActualizadoSource: Space-Track

Época: Sep 14, 2026, 13:10 UTC

1 12165U 78026E   26257.54899187  .00000052  00000-0  53577-4 0  9999
2 12165  98.9840 291.9623 0042723 322.6137 201.4457 14.11084449132431

Sigue DELTA 1 DEB en tiempo real con AllMySat

Download on the App Store